Weather History for Rochester, NY

Change the Weather History Date:

Saturday, May 25, 2013

  Actual Average Record
Temperature  
Mean Temperature 50 °F 60 °F  
Max Temperature 59 °F 70 °F 88 °F (1904)
Min Temperature 40 °F 49 °F 32 °F (1956)
Degree Days  
Heating Degree Days 15 7  
Month to date heating degree days 146 242  
Since 1 July heating degree days 5970 6545  
Cooling Degree Days 0 1  
Month to date cooling degree days 38 16  
Year to date cooling degree days 39 20  
Moisture  
Dew Point 34 °F    
Average Humidity 61    
Maximum Humidity 85    
Minimum Humidity 37    
Precipitation  
Precipitation 0.00 in 0.09 in 1.74 in (1943)
Month to date precipitation 2.28 2.31  
Year to date precipitation 10.15 11.90  
Snow  
Snow 0.00 in 0.00 in 0.00 in ()
Month to date snowfall T 0.4  
Since 1 July snowfall 78.1 99.5  
Snow Depth 0.00 in    
Sea Level Pressure  
Sea Level Pressure 30.20 in    
Wind  
Wind Speed 12 mph (NW)    
Max Wind Speed 23 mph    
Max Gust Speed 31 mph    
Visibility 10 miles    
Events      
T = Trace of Precipitation, MM = Missing Value Source: NWS Daily Summary

Daily Weather History Graph

Daily Weather History Graph

Search for Another Location

Airport:

Trip Planner

Search our weather history database for the weather conditions in past years. The results will help you decide how hot, cold, wet, or windy it might be!

Date:

Astronomy

May. 25, 2013 Rise Set
Actual Time 5:38 AM EDT 8:37 PM EDT
Civil Twilight 5:04 AM EDT 9:11 PM EDT
Nautical Twilight 4:21 AM EDT 9:55 PM EDT
Astronomical Twilight 3:30 AM EDT 10:46 PM EDT
Moon 9:23 PM EDT (5/25) 6:03 AM EDT (5/25)
Length of Visible Light 16h 07m
Length of Day
14h 59m
Full, 100% of the Moon is Illuminated
May 25
Full
May 31
Last Quarter
Jun 8
New
Jun 16
First Quarter
Jun 23
Full

Hourly Weather History & Observations

Time (EDT) Temp. Windchill Dew Point Humidity Pressure Visibility Wind Dir Wind Speed Gust Speed Precip Events Conditions
12:54 AM 45.0 °F 40.1 °F 37.0 °F 74% 30.20 in 10.0 mi NW 9.2 mph - N/A   Scattered Clouds
1:54 AM 44.1 °F 39.5 °F 37.0 °F 76% 30.20 in 10.0 mi WNW 8.1 mph - N/A   Scattered Clouds
2:54 AM 43.0 °F 38.8 °F 36.0 °F 76% 30.20 in 10.0 mi NW 6.9 mph - N/A   Partly Cloudy
3:54 AM 43.0 °F 37.2 °F 36.0 °F 76% 30.21 in 10.0 mi NW 10.4 mph - N/A   Clear
4:54 AM 41.0 °F 37.1 °F 35.1 °F 79% 30.21 in 10.0 mi NW 5.8 mph - N/A   Clear
5:54 AM 39.9 °F 35.8 °F 35.1 °F 83% 30.20 in 10.0 mi NW 5.8 mph - N/A   Scattered Clouds
6:54 AM 43.0 °F 37.7 °F 35.1 °F 74% 30.21 in 10.0 mi NW 9.2 mph - N/A   Scattered Clouds
7:54 AM 46.9 °F - 33.1 °F 59% 30.22 in 10.0 mi North 11.5 mph - N/A   Scattered Clouds
8:54 AM 46.9 °F - 32.0 °F 56% 30.23 in 10.0 mi North 15.0 mph 23.0 mph N/A   Mostly Cloudy
9:54 AM 50.0 °F - 34.0 °F 54% 30.23 in 10.0 mi North 15.0 mph 20.7 mph N/A   Mostly Cloudy
10:54 AM 52.0 °F - 35.1 °F 53% 30.22 in 10.0 mi North 11.5 mph - N/A   Scattered Clouds
11:54 AM 53.1 °F - 32.0 °F 45% 30.23 in 10.0 mi NNW 20.7 mph 26.5 mph N/A   Scattered Clouds
12:54 PM 54.0 °F - 33.1 °F 45% 30.23 in 10.0 mi NNW 16.1 mph 24.2 mph N/A   Mostly Cloudy
1:54 PM 54.0 °F - 32.0 °F 43% 30.22 in 10.0 mi NNW 17.3 mph 28.8 mph N/A   Scattered Clouds
2:54 PM 55.9 °F - 32.0 °F 40% 30.20 in 10.0 mi NW 17.3 mph 25.3 mph N/A   Scattered Clouds
3:54 PM 57.0 °F - 33.1 °F 40% 30.18 in 10.0 mi NW 18.4 mph 23.0 mph N/A   Scattered Clouds
4:54 PM 57.9 °F - 32.0 °F 37% 30.17 in 10.0 mi NW 15.0 mph 23.0 mph N/A   Scattered Clouds
5:54 PM 59.0 °F - 33.1 °F 38% 30.16 in 10.0 mi NW 11.5 mph 23.0 mph N/A   Scattered Clouds
6:54 PM 57.9 °F - 33.1 °F 39% 30.15 in 10.0 mi NW 17.3 mph 24.2 mph N/A   Partly Cloudy
7:54 PM 55.9 °F - 36.0 °F 47% 30.16 in 10.0 mi NW 17.3 mph 23.0 mph N/A   Partly Cloudy
8:54 PM 53.1 °F - 36.0 °F 52% 30.17 in 10.0 mi NW 10.4 mph 20.7 mph N/A   Partly Cloudy
9:54 PM 51.1 °F - 36.0 °F 56% 30.17 in 10.0 mi NW 9.2 mph - N/A   Clear
10:54 PM 48.9 °F - 36.0 °F 61% 30.18 in 10.0 mi NW 9.2 mph - N/A   Partly Cloudy
11:54 PM 48.0 °F - 36.0 °F 63% 30.17 in 10.0 mi NW 8.1 mph - N/A   Partly Cloudy